CAPE
0 0 0 0 23 34 57 241 475 558 601 608 518 618 849 676 630 297 98 119 195 590 615 590 864 716 672 688 931 948 882 761 707
3 4 6 8 2 5 4 10 39 123 463 634 601 837 749 484 381 417 212 2 240 573 622 724 796 741 638 749 938 928 788 730 663
0 2 6 9 11 9 2 0 1 32 88 290 498 658 534 328 346 349 319 230 306 399 663 750 670 758 649 997 989 726 598 665 736
0 0 1 5 9 7 5 6 8 0 5 4 26 74 286 391 299 267 264 211 557 557 883 874 740 708 913 1031 995 1157 891 795 682
0 0 0 0 0 0 0 1 5 8 11 1 0 0 20 108 225 251 260 401 625 644 880 1176 897 810 901 1234 1218 972 760 860 664
0 0 0 0 0 0 0 0 1 1 4 3 5 0 2 15 94 149 273 559 836 669 863 1132 867 729 939 949 786 717 746 839 635
0 0 0 0 0 0 0 0 0 0 0 0 0 3 0 14 29 115 292 572 781 765 830 1071 1148 991 927 1008 881 820 760 665 656
0 0 0 0 0 0 0 0 0 0 0 0 0 0 0 5 17 38 199 450 783 803 735 1012 1290 992 908 236 253 742 996 743 657
0 0 0 0 0 0 0 0 0 0 0 0 0 0 0 0 6 12 56 221 467 705 737 976 1048 1109 500 123 9 142 539 805 666
0 0 0 0 0 0 0 0 0 0 0 0 0 0 0 0 0 6 31 56 71 469 686 846 1180 857 681 1022 879 781 846 809 692
0 0 0 0 0 0 0 0 0 0 0 0 0 0 0 0 0 0 2 8 67 78 568 585 770 321 465 718 1013 898 891 841 659
0 0 0 0 0 0 0 0 0 0 0 0 0 0 0 0 0 0 0 0 6 42 238 559 377 153 330 911 1307 970 885 798 692
0 0 0 0 0 0 0 0 0 0 0 0 0 0 0 0 0 0 0 0 1 48 331 352 26 3 3 863 709 905 859 719 728
0 0 0 0 0 0 0 0 0 0 0 0 0 0 0 0 0 0 0 0 7 68 139 112 39 13 88 80 315 645 1116 975 824
0 0 0 0 0 0 0 0 0 0 0 0 0 0 0 0 0 0 0 0 86 104 136 86 66 51 37 127 54 275 318 1112 946
0 0 0 0 0 0 0 0 0 0 0 0 0 0 0 0 0 11 126 160 94 127 178 87 72 46 0 54 206 94 325 58 931
0 0 0 0 0 0 0 0 0 0 0 0 0 0 0 60 5 14 83 8 150 238 195 125 116 59 23 39 166 166 142 98 86
0 0 0 0 0 0 0 0 0 0 0 0 0 0 0 0 0 0 42 32 97 184 134 113 106 62 30 64 94 88 97 90 11
0 0 0 0 0 0 0 0 0 0 0 0 0 0 0 0 0 0 0 16 62 93 73 32 33 91 70 71 58 57 81 130 128
0 0 0 0 0 0 0 0 0 0 0 0 0 0 0 0 0 0 0 0 20 89 84 19 32 22 22 35 43 50 78 192 202
CIN
-0 -0 -0 -0 -27 -45 -41 -0 -0 -1 -0 -0 -2 -0 -4 -6 -2 -7 -20 -25 -28 -0 -0 -0 -0 -0 -0 -0 -0 -0 -0 -0 -0
-0 -0 -0 -0 -0 -0 -0 -0 -17 -14 -0 -0 -0 -0 -0 -2 -5 -6 -16 -11 -21 -1 -0 -0 -0 -0 -0 -0 -0 -0 -0 -0 -0
-0 -0 -0 -0 -0 -0 -0 -0 -0 -17 -21 -4 -0 -0 -2 -7 -7 -5 -9 -18 -15 -5 -1 -1 -0 -0 -0 -0 -0 -0 -0 -0 -0
-0 -0 -0 -0 -0 -0 -0 -0 -0 -0 -0 -0 -63 -32 -1 -2 -32 -35 -11 -20 -6 -2 -0 -0 -0 -0 -0 -0 -0 -0 -0 -0 -0
-0 -0 -0 -0 -0 -0 -0 -0 -0 -0 -0 -0 -0 -0 -65 -18 -9 -25 -51 -18 -2 -1 -0 -0 -1 -0 -0 -0 -0 -0 -0 -0 -0
-0 -0 -0 -0 -0 -0 -0 -0 -0 -0 -0 -0 -0 -0 -27 -36 -19 -22 -37 -6 -0 -10 -1 -0 -0 -1 -0 -0 -0 -0 -0 -0 -0
-0 -0 -0 -0 -0 -0 -0 -0 -0 -0 -0 -0 -0 -0 -0 -24 -32 -17 -0 -0 -0 -0 -1 -0 -0 -1 -0 -0 -0 -0 -0 -0 -0
-0 -0 -0 -0 -0 -0 -0 -0 -0 -0 -0 -0 -0 -0 -0 -0 -19 -29 -4 -0 -0 -0 -0 -0 -0 -1 -0 -3 -68 -0 -0 -0 -0
-0 -0 -0 -0 -0 -0 -0 -0 -0 -0 -0 -0 -0 -0 -0 -0 -1 -3 -25 -4 -0 -0 -1 -0 -0 -0 -6 -37 -23 -3 -0 -0 -0
-0 -0 -0 -0 -0 -0 -0 -0 -0 -0 -0 -0 -0 -0 -0 -0 -0 -0 -1 -12 -20 -0 -0 -0 -0 -0 -0 -0 -0 -0 -0 -0 -0
-0 -0 -0 -0 -0 -0 -0 -0 -0 -0 -0 -0 -0 -0 -0 -0 -0 -0 -0 -0 -5 -6 -0 -0 -0 -35 -0 -0 -0 -0 -0 -0 -0
-0 -0 -0 -0 -0 -0 -0 -0 -0 -0 -0 -0 -0 -0 -0 -0 -0 -0 -0 -0 -2 -9 -0 -0 -0 -0 -0 -0 -0 -0 -0 -0 -0
-0 -0 -0 -0 -0 -0 -0 -0 -0 -0 -0 -0 -0 -0 -0 -0 -0 -0 -0 -0 -0 -15 -0 -1 -4 -7 -0 -0 -0 -0 -0 -0 -0
-0 -0 -0 -0 -0 -0 -0 -0 -0 -0 -0 -0 -0 -0 -0 -0 -0 -0 -0 -0 -28 -14 -0 -0 -12 -81 -2 -0 -107 -0 -0 -0 -0
-0 -0 -0 -0 -0 -0 -0 -0 -0 -0 -0 -0 -0 -0 -0 -0 -0 -0 -0 -0 -28 -9 -0 -4 -8 -15 -16 -0 -0 -0 -1 -0 -0
-0 -0 -0 -0 -0 -0 -0 -0 -0 -0 -0 -0 -0 -0 -0 -0 -0 -28 -5 -17 -34 -3 -0 -0 -14 -53 -4 -10 -0 -0 -5 -0 -0
-0 -0 -0 -0 -0 -0 -0 -0 -0 -0 -0 -0 -0 -0 -0 -0 -27 -0 -1 -25 -15 -2 -0 -0 -12 -4 -5 -14 -0 -0 -0 -0 -3
-0 -0 -0 -0 -0 -0 -0 -0 -0 -0 -0 -0 -0 -0 -0 -0 -0 -0 -0 -0 -0 -1 -0 -0 -1 -24 -1 -39 -3 -0 -0 -0 -0
-0 -0 -0 -0 -0 -0 -0 -0 -0 -0 -0 -0 -0 -0 -0 -0 -0 -0 -0 -0 -0 -1 -0 -12 -17 -27 -0 -4 -2 -3 -8 -0 -0
-0 -0 -0 -0 -0 -0 -0 -0 -0 -0 -0 -0 -0 -0 -0 -0 -0 -0 -0 -0 -0 -0 -0 -31 -15 -18 -40 -0 -0 -3 -19 -0 -0
Wind_Speed
nan nan nan nan nan nan nan 18 21 23 23 21 20 20 23 27 32 36 nan 33 28 24 21 18 18 20 23 25 22 22 24 27 28
nan nan nan nan nan nan nan nan nan 21 22 24 24 25 26 31 34 33 37 nan 25 23 19 13 17 18 21 27 27 25 27 28 28
nan nan nan nan nan nan nan nan nan nan nan 21 26 31 32 33 35 36 35 32 25 22 20 22 15 18 19 26 25 26 28 27 25
nan nan nan nan nan nan nan nan nan nan nan nan nan nan 31 39 40 39 40 30 25 22 25 24 18 17 19 24 25 26 28 28 26
nan nan nan nan nan nan nan nan nan nan nan nan nan nan nan 40 44 44 44 32 27 25 27 28 25 19 23 24 24 27 24 26 24
nan nan nan nan nan nan nan nan nan nan nan nan nan nan nan nan nan 49 42 37 32 28 28 30 31 27 26 27 28 27 26 28 26
nan nan nan nan nan nan nan nan nan nan nan nan nan nan nan nan nan 51 45 41 37 32 30 30 32 32 27 27 32 32 28 27 26
nan nan nan nan nan nan nan nan nan nan nan nan nan nan nan nan nan nan 47 47 45 38 36 28 30 35 37 32 35 37 29 28 30
nan nan nan nan nan nan nan nan nan nan nan nan nan nan nan nan nan nan nan 53 49 47 39 32 27 33 40 35 nan 21 27 28 29
nan nan nan nan nan nan nan nan nan nan nan nan nan nan nan nan nan nan nan nan nan 48 40 34 26 27 35 38 35 32 35 27 30
nan nan nan nan nan nan nan nan nan nan nan nan nan nan nan nan nan nan nan nan nan nan 45 35 33 21 31 39 39 36 31 36 33
nan nan nan nan nan nan nan nan nan nan nan nan nan nan nan nan nan nan nan nan nan nan 46 41 42 44 26 34 43 43 36 39 36
nan nan nan nan nan nan nan nan nan nan nan nan nan nan nan nan nan nan nan nan nan nan 51 46 nan nan nan 29 45 48 43 42 44
nan nan nan nan nan nan nan nan nan nan nan nan nan nan nan nan nan nan nan nan nan nan 62 57 nan nan nan nan 46 51 44 44 43
nan nan nan nan nan nan nan nan nan nan nan nan nan nan nan nan nan nan nan nan nan 65 71 nan nan nan nan 55 nan 38 50 39 42
nan nan nan nan nan nan nan nan nan nan nan nan nan nan nan nan nan nan 53 55 nan 64 69 nan nan nan nan nan 50 nan 33 nan 31
nan nan nan nan nan nan nan nan nan nan nan nan nan nan nan nan nan nan nan nan 63 65 68 61 68 nan nan nan 46 46 42 nan nan
nan nan nan nan nan nan nan nan nan nan nan nan nan nan nan nan nan nan nan nan nan 72 67 57 54 nan nan nan nan nan nan nan nan
nan nan nan nan nan nan nan nan nan nan nan nan nan nan nan nan nan nan nan nan nan nan nan nan nan nan nan nan nan nan nan 45 56
nan nan nan nan nan nan nan nan nan nan nan nan nan nan nan nan nan nan nan nan nan nan nan nan nan nan nan nan nan nan nan 48 54
Wind_Direction
nan nan nan nan nan nan nan 282 283 283 288 288 277 269 277 279 278 273 nan 270 269 272 266 274 276 276 274 280 281 275 279 282 282
nan nan nan nan nan nan nan nan nan 285 278 282 279 266 269 274 276 272 273 nan 267 267 267 268 281 272 271 279 280 277 277 279 279
nan nan nan nan nan nan nan nan nan nan nan 275 278 269 273 270 272 276 269 269 271 261 251 268 271 271 274 283 283 273 275 274 274
nan nan nan nan nan nan nan nan nan nan nan nan nan nan 272 276 265 267 266 266 258 256 254 255 263 263 273 281 282 267 269 272 274
nan nan nan nan nan nan nan nan nan nan nan nan nan nan nan 282 276 263 264 265 257 245 246 251 262 268 271 273 271 266 260 262 268
nan nan nan nan nan nan nan nan nan nan nan nan nan nan nan nan nan 267 257 259 254 246 237 248 258 266 268 267 261 259 253 262 266
nan nan nan nan nan nan nan nan nan nan nan nan nan nan nan nan nan 269 253 244 251 243 232 243 255 261 258 260 262 256 254 256 261
nan nan nan nan nan nan nan nan nan nan nan nan nan nan nan nan nan nan 253 238 237 242 234 237 255 257 254 231 243 253 248 251 252
nan nan nan nan nan nan nan nan nan nan nan nan nan nan nan nan nan nan nan 239 231 233 235 226 243 265 262 259 nan 254 247 246 256
nan nan nan nan nan nan nan nan nan nan nan nan nan nan nan nan nan nan nan nan nan 228 224 226 221 280 275 262 257 253 256 259 265
nan nan nan nan nan nan nan nan nan nan nan nan nan nan nan nan nan nan nan nan nan nan 221 218 183 191 265 269 259 245 248 256 255
nan nan nan nan nan nan nan nan nan nan nan nan nan nan nan nan nan nan nan nan nan nan 219 215 193 204 196 256 260 256 238 249 245
nan nan nan nan nan nan nan nan nan nan nan nan nan nan nan nan nan nan nan nan nan nan 221 218 nan nan nan 239 260 256 247 244 259
nan nan nan nan nan nan nan nan nan nan nan nan nan nan nan nan nan nan nan nan nan nan 223 225 nan nan nan nan 228 231 248 249 251
nan nan nan nan nan nan nan nan nan nan nan nan nan nan nan nan nan nan nan nan nan 225 226 nan nan nan nan 193 nan 225 222 250 266
nan nan nan nan nan nan nan nan nan nan nan nan nan nan nan nan nan nan 233 229 nan 224 229 nan nan nan nan nan 198 nan 194 nan 255
nan nan nan nan nan nan nan nan nan nan nan nan nan nan nan nan nan nan nan nan 223 226 230 232 240 nan nan nan 205 202 186 nan nan
nan nan nan nan nan nan nan nan nan nan nan nan nan nan nan nan nan nan nan nan nan 227 226 226 232 nan nan nan nan nan nan nan nan
nan nan nan nan nan nan nan nan nan nan nan nan nan nan nan nan nan nan nan nan nan nan nan nan nan nan nan nan nan nan nan 216 209
nan nan nan nan nan nan nan nan nan nan nan nan nan nan nan nan nan nan nan nan nan nan nan nan nan nan nan nan nan nan nan 213 220